This demonstration page uses our WeatherBlox Daily Observations layout. Learn more.

Left ArrowRight Arrow

Hourly Observations for September 15, 2021

Temp ( °F °C ) Dew Point ( °F °C ) Humidity (%) Winds ( mph kmh ) Pressure ( in mb ) Visibility ( mi km ) Precip ( " mm )
12:53 am 00:53 Clear 61 16.1 55 12.8 81 81 ESE 6 9 30.01 1016 10 16 0.00 0.00
1:53 am 01:53 Clear 62 16.7 56 13.3 80 80 SE 6 9 30.01 1016 10 16 0.00 0.00
2:53 am 02:53 Clear 62 16.7 56 13.3 80 80 SSE 5 7 30.00 1016 10 16 0.00 0.00
3:53 am 03:53 Clear 61 16.1 56 13.3 84 84 SSE 7 11 29.98 1015 10 16 0.00 0.00
4:53 am 04:53 Clear 59 15 56 13.3 90 90 S 6 9 29.99 1016 10 16 0.00 0.00
5:53 am 05:53 Clear 57 13.9 55 12.8 93 93 S 3 6 30.00 1016 10 16 0.00 0.00
6:53 am 06:53 Clear 57 13.9 55 12.8 93 93 S 6 9 30.01 1016 10 16 0.00 0.00
7:53 am 07:53 Sunny 58 14.4 56 13.3 93 93 SSE 8 13 30.03 1017 10 16 0.00 0.00
8:53 am 08:53 Sunny 62 16.7 58 14.4 86 86 S 7 11 30.02 1017 10 16 0.00 0.00
9:53 am 09:53 Sunny 68 20 61 16.1 78 78 S 12 19 30.01 1016 10 16 0.00 0.00
10:53 am 10:53 Sunny 73 22.8 58 14.4 59 59 S 13 20 30.00 1016 10 16 0.00 0.00
11:53 am 11:53 Sunny 77 25 58 14.4 52 52 S 14 22 29.97 1015 10 16 0.00 0.00
12:53 pm 12:53 Sunny 79 26.1 60 15.6 52 52 S 13 20 29.95 1014 10 16 0.00 0.00
1:53 pm 13:53 Cloudy 79 26.1 60 15.6 52 52 S 10 17 29.93 1013 10 16 0.00 0.00
2:53 pm 14:53 Mostly Cloudy 81 27.2 62 16.7 53 53 S 13 20 29.90 1013 10 16 0.00 0.00
3:53 pm 15:53 Partly Cloudy 83 28.3 62 16.7 49 49 S 10 17 29.87 1012 10 16 0.00 0.00
4:53 pm 16:53 Partly Cloudy 81 27.2 62 16.7 53 53 SSW 12 19 29.86 1011 10 16 0.00 0.00
5:53 pm 17:53 Sunny 83 28.3 62 16.7 49 49 S 14 22 29.85 1011 10 16 0.00 0.00
6:53 pm 18:53 Sunny 81 27.2 61 16.1 51 51 S 12 19 29.83 1010 10 16 0.00 0.00
7:53 pm 19:53 Clear 78 25.6 61 16.1 56 56 S 9 15 29.84 1011 10 16 0.00 0.00
8:53 pm 20:53 Clear 75 23.9 62 16.7 64 64 SSE 9 15 29.85 1011 10 16 0.00 0.00
9:53 pm 21:53 Clear 73 22.8 62 16.7 69 69 S 10 17 29.86 1011 10 16 0.00 0.00
10:53 pm 22:53 Clear 72 22.2 63 17.2 73 73 S 9 15 29.86 1011 10 16 0.00 0.00
11:53 pm 23:53 Clear 70 21.1 63 17.2 79 79 S 12 19 29.85 1011 10 16 0.00 0.00

Powered by AerisWeather